| time (UTC) | temp C | wind direction | speed KPH | gust KPH | rain 1hr cm | rain 24hr cm | rain mn cm | humidity % | barometer mb |
| 20260507213020 | 28 | 360 | 9.7 | 22.5 | 0.00 | 0.00 | 0.00 | 79 | 1014.3 |
| 20260507211520 | 28 | 360 | 12.9 | 22.5 | 0.00 | 0.00 | 0.00 | 78 | 1014.1 |
| 20260507210018 | 28 | 360 | 12.9 | 20.9 | 0.00 | 0.00 | 0.00 | 78 | 1014.3 |
| 20260507204517 | 28 | 360 | 8.0 | 17.7 | 0.00 | 0.00 | 0.00 | 77 | 1014.4 |
| 20260507203017 | 28 | 360 | 11.3 | 19.3 | 0.00 | 0.00 | 0.00 | 76 | 1014.5 |
| 20260507201517 | 28 | 195 | 9.7 | 17.7 | 0.00 | 0.00 | 0.00 | 77 | 1014.4 |
| 20260507200014 | 28 | 360 | 12.9 | 20.9 | 0.00 | 0.00 | 0.00 | 78 | 1014.5 |
| 20260507194513 | 28 | 360 | 9.7 | 24.1 | 0.00 | 0.00 | 0.00 | 78 | 1014.8 |
| 20260507193019 | 28 | 184 | 11.3 | 20.9 | 0.00 | 0.00 | 0.00 | 76 | 1014.8 |
| 20260507191510 | 28 | 360 | 16.1 | 25.7 | 0.00 | 0.00 | 0.00 | 75 | 1014.8 |
| 20260507190006 | 28 | 360 | 12.9 | 29.0 | 0.00 | 0.00 | 0.00 | 79 | 1015.2 |
| 20260507184507 | 28 | 188 | 16.1 | 27.4 | 0.00 | 0.00 | 0.00 | 79 | 1014.6 |
| 20260507183005 | 27 | 188 | 19.3 | 29.0 | 0.00 | 0.00 | 0.00 | 78 | 1015.0 |
| 20260507181501 | 27 | 180 | 14.5 | 27.4 | 0.00 | 0.00 | 0.00 | 79 | 1015.2 |
| 20260507180108 | 28 | 201 | 17.7 | 25.7 | 0.00 | 0.00 | 0.00 | 79 | 1015.4 |
| 20260507174636 | 28 | 184 | 12.9 | 27.4 | 0.00 | 0.00 | 0.00 | 76 | 1015.5 |
| 20260507173059 | 28 | 184 | 17.7 | 32.2 | 0.00 | 0.00 | 0.00 | 75 | 1015.7 |
| 20260507171616 | 29 | 360 | 16.1 | 22.5 | 0.00 | 0.00 | 0.00 | 75 | 1016.0 |
| 20260507170058 | 28 | 180 | 14.5 | 25.7 | 0.00 | 0.00 | 0.00 | 76 | 1016.2 |
| 20260507164556 | 29 | 360 | 12.9 | 25.7 | 0.00 | 0.00 | 0.00 | 77 | 1016.4 |
| 20260507163055 | 28 | 360 | 16.1 | 29.0 | 0.00 | 0.00 | 0.00 | 75 | 1016.6 |
| 20260507161556 | 28 | 195 | 17.7 | 27.4 | 0.00 | 0.00 | 0.00 | 75 | 1016.7 |
| 20260507160114 | 28 | 360 | 14.5 | 24.1 | 0.00 | 0.00 | 0.00 | 75 | 1016.8 |
| 20260507154552 | 28 | 205 | 14.5 | 27.4 | 0.00 | 0.00 | 0.00 | 76 | 1016.9 |
| 20260507153051 | 28 | 187 | 19.3 | 29.0 | 0.00 | 0.00 | 0.00 | 77 | 1016.9 |
| 20260507151557 | 28 | 118 | 16.1 | 27.4 | 0.00 | 0.00 | 0.00 | 77 | 1017.0 |
| 20260507150050 | 28 | 360 | 19.3 | 29.0 | 0.00 | 0.00 | 0.00 | 75 | 1017.1 |
| 20260507144551 | 28 | 360 | 19.3 | 27.4 | 0.00 | 0.00 | 0.00 | 74 | 1017.4 |
| 20260507143052 | 28 | 360 | 16.1 | 30.6 | 0.00 | 0.00 | 0.00 | 77 | 1017.1 |
| 20260507141546 | 28 | 360 | 16.1 | 25.7 | 0.00 | 0.00 | 0.00 | 76 | 1017.4 |
| 20260507140048 | 28 | 360 | 16.1 | 29.0 | 0.00 | 0.00 | 0.00 | 77 | 1017.3 |
| 20260507134543 | 28 | 360 | 16.1 | 30.6 | 0.00 | 0.00 | 0.00 | 77 | 1017.2 |
| 20260507133042 | 28 | 360 | 14.5 | 30.6 | 0.00 | 0.00 | 0.00 | 79 | 1017.2 |
| 20260507131607 | 28 | 360 | 19.3 | 29.0 | 0.00 | 0.00 | 0.00 | 78 | 1017.0 |
| 20260507130037 | 27 | 102 | 19.3 | 27.4 | 0.00 | 0.00 | 0.00 | 77 | 1017.1 |
| 20260507124540 | 27 | 360 | 14.5 | 22.5 | 0.00 | 0.00 | 0.00 | 78 | 1016.9 |
| 20260507123041 | 27 | 111 | 19.3 | 25.7 | 0.00 | 0.00 | 0.00 | 77 | 1016.8 |
| 20260507121531 | 27 | 360 | 6.4 | 19.3 | 0.00 | 0.00 | 0.00 | 79 | 1016.6 |
| 20260507120032 | 26 | 360 | 9.7 | 19.3 | 0.00 | 0.00 | 0.00 | 79 | 1016.4 |
| 20260507114526 | 26 | 101 | 9.7 | 16.1 | 0.00 | 0.00 | 0.00 | 80 | 1016.4 |
| 20260507113055 | 25 | 360 | 6.4 | 11.3 | 0.00 | 0.00 | 0.00 | 81 | 1016.4 |
| 20260507111520 | 25 | 360 | 4.8 | 9.7 | 0.00 | 0.00 | 0.00 | 82 | 1016.4 |
| 20260507110017 | 25 | 360 | 8.0 | 8.0 | 0.00 | 0.00 | 0.00 | 1016.4 | |
| 20260507104518 | -17 | 0.0 | 0.0 | 0.00 | 0.00 | 0.00 | 1016.0 | ||
| 20260507103008 | -17 | 0.0 | 0.0 | 0.00 | 0.00 | 0.00 | 1015.8 | ||
| 20260507101503 | -17 | 0.0 | 0.0 | 0.00 | 0.00 | 0.00 | 1015.6 | ||
| 20260507094605 | -17 | 0.0 | 0.0 | 0.00 | 0.00 | 0.00 | 1015.6 | ||
| 20260507093051 | -17 | 0.0 | 0.0 | 0.00 | 0.00 | 0.00 | 1015.6 | ||
| 20260507091548 | -17 | 0.0 | 0.0 | 0.00 | 0.00 | 0.00 | 1015.6 | ||
| 20260507090044 | -17 | 0.0 | 0.0 | 0.00 | 0.00 | 0.00 | 1015.7 | ||
| 20260507084550 | -17 | 0.0 | 0.0 | 0.00 | 0.00 | 0.00 | 1015.7 | ||
| 20260507083034 | -17 | 0.0 | 0.0 | 0.00 | 0.00 | 0.00 | 1015.6 | ||
| 20260507081529 | -17 | 0.0 | 0.0 | 0.00 | 0.00 | 0.00 | 1015.4 | ||
| 20260507080024 | -17 | 0.0 | 0.0 | 0.00 | 0.00 | 0.00 | 1015.3 | ||
| 20260507074520 | -17 | 0.0 | 0.0 | 0.00 | 0.00 | 0.00 | 1015.4 | ||
| 20260507073022 | -17 | 0.0 | 0.0 | 0.00 | 0.00 | 0.00 | 1015.5 | ||
| 20260507071517 | -17 | 0.0 | 0.0 | 0.00 | 0.00 | 0.00 | 1015.7 | ||
| 20260507070016 | -17 | 0.0 | 0.0 | 0.00 | 0.00 | 0.00 | 1015.8 | ||
| 20260507064504 | -17 | 0.0 | 0.0 | 0.00 | 0.00 | 0.00 | 1016.0 | ||
| 20260507063059 | -17 | 0.0 | 0.0 | 0.00 | 0.00 | 0.00 | 1016.2 | ||
| 20260507063001 | -17 | 0.0 | 0.0 | 0.00 | 0.00 | 0.00 | 1016.2 | ||
| 20260507061555 | -17 | 0.0 | 0.0 | 0.00 | 0.00 | 0.00 | 1016.4 | ||
| 20260507060050 | -17 | 0.0 | 0.0 | 0.00 | 0.00 | 0.00 | 1016.5 | ||
| 20260507054546 | -17 | 0.0 | 0.0 | 0.00 | 0.00 | 0.00 | 1016.6 | ||
| 20260507053042 | -17 | 0.0 | 0.0 | 0.00 | 0.00 | 0.00 | 1016.8 | ||
| 20260507051537 | -17 | 0.0 | 0.0 | 0.00 | 0.00 | 0.00 | 1017.0 | ||
| 20260507050058 | -17 | 0.0 | 0.0 | 0.00 | 0.00 | 0.00 | 1017.2 | ||
| 20260507044536 | -17 | 0.0 | 0.0 | 0.00 | 0.00 | 0.00 | 1017.5 | ||
| 20260507043024 | -17 | 0.0 | 0.0 | 0.00 | 0.00 | 0.00 | 1017.8 | ||
| 20260507041519 | -17 | 0.0 | 0.0 | 0.00 | 0.00 | 0.00 | 1017.8 | ||
| 20260507040018 | -17 | 0.0 | 0.0 | 0.00 | 0.00 | 0.00 | 1017.7 | ||
| 20260507034512 | -17 | 0.0 | 0.0 | 0.00 | 0.00 | 0.00 | 1017.9 | ||
| 20260507033007 | -17 | 0.0 | 0.0 | 0.00 | 0.00 | 0.00 | 1018.0 | ||
| 20260507031506 | -17 | 0.0 | 0.0 | 0.00 | 0.00 | 0.00 | 1018.1 | ||
| 20260507030059 | -17 | 0.0 | 0.0 | 0.00 | 0.00 | 0.00 | 1018.2 | ||
| 20260507024555 | -17 | 0.0 | 0.0 | 0.00 | 0.00 | 0.00 | 1018.1 | ||
| 20260507023050 | -17 | 0.0 | 0.0 | 0.00 | 0.00 | 0.00 | 1018.1 | ||
| 20260507021556 | -17 | 0.0 | 0.0 | 0.00 | 0.00 | 0.00 | 1017.9 | ||
| 20260507020042 | -17 | 0.0 | 0.0 | 0.00 | 0.00 | 0.00 | 1017.9 | ||
| 20260507014537 | -17 | 0.0 | 0.0 | 0.00 | 0.00 | 0.00 | 1017.8 | ||
| 20260507013036 | -17 | 0.0 | 0.0 | 0.00 | 0.00 | 0.00 | 1017.7 | ||
| 20260507011532 | -17 | 0.0 | 0.0 | 0.00 | 0.00 | 0.00 | 1017.6 | ||
| 20260507010037 | -17 | 0.0 | 0.0 | 0.00 | 0.00 | 0.00 | 1017.5 | ||
| 20260507004522 | -17 | 0.0 | 0.0 | 0.00 | 0.00 | 0.00 | 1017.4 | ||
| 20260507003015 | -17 | 0.0 | 0.0 | 0.00 | 0.00 | 0.00 | 1017.3 | ||
| 20260507001511 | -17 | 0.0 | 0.0 | 0.00 | 0.00 | 0.00 | 1017.1 | ||
| 20260507000007 | -17 | 0.0 | 0.0 | 0.00 | 0.00 | 0.00 | 1017.0 | ||
| 20260506234505 | -17 | 0.0 | 0.0 | 0.00 | 0.00 | 0.00 | 1016.8 | ||
| 20260506233100 | -17 | 0.0 | 0.0 | 0.00 | 0.00 | 0.00 | 1016.8 | ||
| 20260506231556 | -17 | 0.0 | 0.0 | 0.00 | 0.00 | 0.00 | 1016.5 | ||
| 20260506230050 | -17 | 0.0 | 0.0 | 0.00 | 0.00 | 0.00 | 1016.4 | ||
| 20260506224548 | 27 | 360 | 11.3 | 19.3 | 0.00 | 0.00 | 0.00 | 79 | 1016.2 |
| 20260506223055 | 27 | 164 | 9.7 | 17.7 | 0.00 | 0.00 | 0.00 | 80 | 1016.1 |
| 20260506221545 | 27 | 360 | 11.3 | 19.3 | 0.00 | 0.00 | 0.00 | 78 | 1016.0 |
| 20260506220045 | 27 | 360 | 14.5 | 24.1 | 0.00 | 0.00 | 0.00 | 78 | 1015.8 |
| 20260506214545 | 28 | 360 | 11.3 | 22.5 | 0.00 | 0.00 | 0.00 | 78 | 1015.8 |